Location: Newark
(13.8192°N, 100.4391°E)
Time: 21:49:59
(UTC+00:00)

ISS - Visible Passes

Search period start: 08 December 2019 00:00
Search period end: 18 December 2019 00:00
Orbit: 411 x 421 km, 51.6° (Epoch: 08 December)

Date Brightness Start Highest point End Pass type
(mag) Time Alt. Az. Time Alt. Az. Time Alt. Az.
11 Dec -1.3 12:08:49 10° NNW 12:09:10 12° N 12:09:10 12° N visible
12 Dec -1.9 11:21:19 10° NNE 11:23:14 14° NE 11:25:05 10° E visible
12 Dec -0.7 12:57:14 10° WNW 12:58:11 15° W 12:58:11 15° W visible
13 Dec -2.8 12:08:08 10° NW 12:11:23 49° SW 12:14:38 10° SSE visible
14 Dec -3.8 11:19:35 10° NNW 11:22:53 64° NE 11:26:12 10° SE visible
15 Dec -0.1 12:09:58 10° WSW 12:10:50 11° SW 12:11:40 10° SW visible
16 Dec -0.9 11:19:36 10° WNW 11:22:21 23° SW 11:25:06 10° S visible
16 Dec -0.1 23:02:47 10° SSE 23:04:14 12° SE 23:05:41 10° E visible
